Pagosa Springs, CO

8:36 AM MST on December 16, 2017 (GMT -0700)
Pagosa Springs

Weather History for KPSO - May, 2013

Change the Weather History Date:

Monday, May 13, 2013

  Actual Average (KE33) Record (KE33)
Temperature  
Mean Temperature 55 °F -  
Max Temperature 75 °F 63 °F 75 °F (2006)
Min Temperature 35 °F 39 °F 30 °F (2004)
Degree Days  
Heating Degree Days 10    
Growing Degree Days 5 (Base 50)    
Moisture  
Dew Point 28 °F    
Average Humidity 41    
Maximum Humidity 80    
Minimum Humidity 12    
Precipitation  
Precipitation 0.00 in - - ()
Sea Level Pressure  
Sea Level Pressure 30.38 in    
Wind  
Wind Speed 2 mph (NE)    
Max Wind Speed 18 mph    
Max Gust Speed 28 mph    
Visibility 10 miles    
Events      
Averages and records for this station are not official NWS values.
T = Trace of Precipitation, MM = Missing Value Source: NWS Daily Summary

Daily Weather History Graph

Daily Weather History Graph

Search for Another Location

Airport or City:

Trip Planner

Search our weather history database for the weather conditions in past years. The results will help you decide how hot, cold, wet, or windy it might be!

Date:

Astronomy

May. 13, 2013 Rise Set
Actual Time 6:00 AM MDT 8:08 PM MDT
Civil Twilight 5:31 AM MDT 8:37 PM MDT
Nautical Twilight 4:56 AM MDT 9:13 PM MDT
Astronomical Twilight 4:18 AM MDT 9:51 PM MDT
Moon 8:49 AM MDT (5/13) 11:19 PM MDT (5/13)
Length of Visible Light 15h 05m
Length of Day
14h 07m
Waxing Crescent, 12% of the Moon is Illuminated
May 13
Waxing Crescent
May 17
First Quarter
May 24
Full
May 31
Last Quarter
Jun 8
New

Hourly Weather History & Observations

Time (MDT) Temp. Windchill Dew Point Humidity Pressure Visibility Wind Dir Wind Speed Gust Speed Precip Events Conditions
12:15 AM 47.3 °F - 31.8 °F 55% 30.40 in 10.0 mi Calm Calm - N/A   Clear
12:35 AM 46.4 °F - 31.1 °F 55% 30.40 in 10.0 mi Calm Calm - N/A   Clear
12:55 AM 45.7 °F - 32.9 °F 61% 30.40 in 10.0 mi Calm Calm - N/A   Clear
1:15 AM 41.5 °F - 31.3 °F 67% 30.40 in 10.0 mi Calm Calm - N/A   Clear
1:35 AM 43.7 °F - 31.1 °F 61% 30.40 in 10.0 mi Calm Calm - N/A   Clear
1:55 AM 42.4 °F - 32.0 °F 67% 30.39 in 10.0 mi Calm Calm - N/A   Clear
2:15 AM 40.5 °F - 30.6 °F 68% 30.39 in 10.0 mi Calm Calm - N/A   Clear
2:35 AM 39.7 °F - 30.4 °F 69% 30.39 in 10.0 mi Calm Calm - N/A   Clear
2:55 AM 39.4 °F 37.2 °F 30.2 °F 70% 30.39 in 10.0 mi WNW 3.5 mph - N/A   Clear
3:15 AM 40.3 °F - 29.8 °F 66% 30.39 in 10.0 mi Calm Calm - N/A   Clear
3:35 AM 40.3 °F - 30.9 °F 69% 30.39 in 10.0 mi Calm Calm - N/A   Clear
3:55 AM 38.5 °F - 29.7 °F 71% 30.38 in 10.0 mi Calm Calm - N/A   Clear
4:15 AM 39.0 °F - 29.3 °F 68% 30.39 in 10.0 mi Calm Calm - N/A   Clear
4:35 AM 38.5 °F - 30.0 °F 72% 30.39 in 10.0 mi Calm Calm - N/A   Clear
4:55 AM 39.6 °F - 30.0 °F 69% 30.39 in 10.0 mi Calm Calm - N/A   Clear
5:15 AM 36.9 °F - 28.8 °F 72% 30.39 in 10.0 mi Calm Calm - N/A   Clear
5:35 AM 37.0 °F - 29.7 °F 75% 30.39 in 10.0 mi Calm Calm - N/A   Clear
5:55 AM 35.6 °F - 28.4 °F 75% 30.40 in 10.0 mi Calm Calm - N/A   Clear
6:15 AM 35.2 °F - 29.5 °F 80% 30.40 in 10.0 mi Calm Calm - N/A   Clear
6:35 AM 37.4 °F - 29.7 °F 74% 30.41 in 10.0 mi Calm Calm - N/A   Clear
6:55 AM 39.0 °F - 30.9 °F 73% 30.41 in 10.0 mi Calm Calm - N/A   Clear
7:15 AM 44.8 °F - 32.9 °F 63% 30.42 in 10.0 mi Calm Calm - N/A   Clear
7:35 AM 49.1 °F - 32.2 °F 52% 30.43 in 10.0 mi Calm Calm - N/A   Clear
7:55 AM 50.9 °F - 30.6 °F 46% 30.43 in 10.0 mi Calm Calm - N/A   Clear
8:15 AM 54.0 °F - 31.6 °F 43% 30.43 in 10.0 mi Calm Calm - N/A   Clear
8:35 AM 55.8 °F - 32.0 °F 41% 30.43 in 10.0 mi Calm Calm - N/A   Clear
8:55 AM 56.7 °F - 32.9 °F 41% 30.44 in 10.0 mi SSW 3.5 mph - N/A   Clear
9:15 AM 56.3 °F - 31.5 °F 39% 30.44 in 10.0 mi SSW 4.6 mph - N/A   Clear
9:35 AM 57.7 °F - 30.2 °F 35% 30.43 in 10.0 mi South 3.5 mph - N/A   Clear
9:55 AM 60.8 °F - 29.1 °F 30% 30.43 in 10.0 mi SW 3.5 mph - N/A   Clear
10:15 AM 62.6 °F - 26.8 °F 26% 30.43 in 10.0 mi SSW 4.6 mph - N/A   Clear
10:35 AM 64.2 °F - 25.2 °F 23% 30.43 in 10.0 mi Calm Calm - N/A   Clear
10:55 AM 65.8 °F - 24.4 °F 21% 30.42 in 10.0 mi SSW 3.5 mph - N/A   Clear
11:15 AM 67.8 °F - 22.6 °F 18% 30.42 in 10.0 mi South 4.6 mph - N/A   Clear
11:35 AM 68.7 °F - 22.5 °F 17% 30.41 in 10.0 mi WNW 3.5 mph - N/A   Clear
11:55 AM 69.6 °F - 23.2 °F 17% 30.40 in 10.0 mi SSW 3.5 mph - N/A   Clear
12:15 PM 70.3 °F - 21.9 °F 16% 30.40 in 10.0 mi SSW 3.5 mph - N/A   Clear
12:35 PM 71.6 °F - 23.5 °F 16% 30.39 in 10.0 mi WSW 5.8 mph - N/A   Clear
12:55 PM 72.7 °F - 19.2 °F 13% 30.38 in 10.0 mi SSW 9.2 mph - N/A   Clear
1:15 PM 72.5 °F - 18.3 °F 13% 30.38 in 10.0 mi South 8.1 mph - N/A   Clear
1:35 PM 72.7 °F - 16.3 °F 12% 30.36 in 10.0 mi WSW 3.5 mph - N/A   Clear
2:35 PM 72.7 °F - 21.4 °F 15% 30.36 in 10.0 mi NNW 8.1 mph - N/A   Overcast
2:55 PM 72.1 °F - 23.4 °F 16% 30.36 in 10.0 mi NE 12.7 mph - N/A   Overcast
3:15 PM 72.0 °F - 23.7 °F 16% 30.35 in 10.0 mi East 6.9 mph - N/A   Mostly Cloudy
3:35 PM 73.2 °F - 23.9 °F 16% 30.34 in 10.0 mi ENE 6.9 mph - N/A   Scattered Clouds
3:55 PM 73.4 °F - 20.7 °F 14% 30.33 in 10.0 mi NE 3.5 mph - N/A   Clear
4:15 PM 74.8 °F - 20.3 °F 13% 30.32 in 10.0 mi NE 3.5 mph - N/A   Clear
4:35 PM 74.7 °F - 17.4 °F 12% 30.32 in 10.0 mi West 3.5 mph - N/A   Scattered Clouds
4:55 PM 75.0 °F - 18.5 °F 12% 30.31 in 10.0 mi NNW 5.8 mph - N/A   Scattered Clouds
5:35 PM 74.3 °F - 21.7 °F 14% 30.30 in 10.0 mi NNW 11.5 mph 19.6 mph N/A   Scattered Clouds
6:15 PM 69.3 °F - 28.9 °F 22% 30.31 in 10.0 mi NNW 15.0 mph 27.6 mph N/A   Scattered Clouds
6:35 PM 69.1 °F - 29.1 °F 23% 30.32 in 10.0 mi NW 17.3 mph 25.3 mph N/A   Mostly Cloudy
6:55 PM 68.0 °F - 28.9 °F 23% 30.34 in 10.0 mi ENE 18.4 mph 24.2 mph N/A   Overcast
7:15 PM 65.3 °F - 30.7 °F 27% 30.35 in 10.0 mi ENE 5.8 mph 20.7 mph N/A   Overcast
7:35 PM 65.3 °F - 30.9 °F 28% 30.34 in 10.0 mi East 10.4 mph - N/A   Overcast
7:55 PM 64.2 °F - 31.1 °F 29% 30.35 in 10.0 mi NE 11.5 mph - N/A   Scattered Clouds
8:15 PM 63.5 °F - 31.1 °F 30% 30.34 in 10.0 mi ENE 3.5 mph - N/A   Clear
8:35 PM 62.8 °F - 31.1 °F 30% 30.35 in 10.0 mi NE 3.5 mph - N/A   Scattered Clouds
8:55 PM 61.9 °F - 31.1 °F 31% 30.35 in 10.0 mi ENE 6.9 mph - N/A   Scattered Clouds
9:15 PM 61.0 °F - 31.3 °F 33% 30.34 in 10.0 mi ENE 5.8 mph - N/A   Clear
9:35 PM 58.8 °F - 31.6 °F 36% 30.35 in 10.0 mi NE 5.8 mph - N/A   Clear
9:55 PM 56.7 °F - 32.0 °F 39% 30.36 in 10.0 mi Calm Calm - N/A   Clear
10:15 PM 55.0 °F - 32.0 °F 42% 30.36 in 10.0 mi North 3.5 mph - N/A   Clear
10:35 PM 56.7 °F - 31.8 °F 39% 30.36 in 10.0 mi NE 4.6 mph - N/A   Clear
10:55 PM 54.9 °F - 32.0 °F 42% 30.35 in 10.0 mi NE 5.8 mph - N/A   Clear
11:15 PM 54.9 °F - 31.8 °F 42% 30.35 in 10.0 mi NNE 3.5 mph - N/A   Clear
11:35 PM 52.5 °F - 32.0 °F 46% 30.34 in 10.0 mi NNE 4.6 mph - N/A   Clear
11:55 PM 52.0 °F - 32.0 °F 47% 30.34 in 10.0 mi NE 5.8 mph - N/A   Clear